Location: Dentlein
(49.1477°N, 10.4231°E)
Time: 19:59:44
(UTC+00:00)

CZ-2D R/B - Pass Details

Date: 23 May 2024
Orbit: 790 x 843 km, 98.8° (Epoch: 24 June)

Event Time Altitude Azimuth Distance (km) Brightness Sun altitude
Rises 00:10:30 0° 25° (NNE) 3,413 6.9 -19.1°
Reaches altitude 10° 00:13:27 10° 41° (NE) 2,469 5.6 -19.0°
Maximum altitude 00:17:37 22° 91° (E) 1,765 4.0 -18.8°
Enters shadow 00:21:27 11° 138° (SE) 2,359 4.2 -18.7°
